星链-4712 (STARLINK-4712 )

导读

STARLINK-4712是美国太空探索技术公司星链计划中的一颗卫星,于2022年9月11日发射升空,属于星链星座组网卫星,旨在为全球提供低延迟、高速率的宽带互联网服务。该卫星运行在近地轨道,依托星链星座的大规模组网,可覆盖偏远地区,补充全球互联网覆盖短板。

Basic Information
目录编号:
53798
目录名称:
STARLINK-4712
国际标识:
2022-111AB
轨道中心:
EARTH
卫星名称:
星链-4712
卫星全名:
星链-4712 (STARLINK-4712 )
卫星状态:
在轨 (已飞行1375 天)
发射日期:
2022-09-11 UTC
国别 :
美国 (US)
星等 :
--
Orbit Information
数据来源 国际轨道数据 AOE轨道数据
星历时间 2026-06-17T04:43:35+0800
13小时前
查看轨道信息
2026-06-15T02:00:00+0800
2天前
查看轨道信息
半长轴 6917.891km 6917.984km
偏心率 0.0001231 0.0001396
轨道倾角 53.159° 53.158°
近地点辐角 85.510° 118.193°
升交点赤经 188.421° 197.920°
平近点角 274.603° 274.921°
近地点 538.902km 538.881km
远地点 540.606km 540.813km
周期 95.438分钟 95.440分钟
每日圈数 15.088368 15.088063
Detailed Information
固有亮度:
5
最大亮度:
2.5
卫星平台:
Starlink v1.5
覆盖范围:
全球
运营商:
太空探索技术公司
运营商所在国:
美国
制造商(研发单位):
太空探索技术公司
制造商所在国:
美国
使用方式:
暂无
Satellite Introduction
星链(Starlink)计划是由太空探索技术公司(SpaceX)提出的一个巨型低轨卫星互联网星座项目,计划在2019年至2024年间在太空搭建由约1.2万颗卫星组成的“星链”网络,其中1584颗将部署在地球上空550千米处的近地轨道,并从2020年开始工作。该卫星仍在工作。
2D Orbit Map
3D Orbit Map
Orbit Altitude Analysis Chart
Orbit Inclination Analysis Chart
Orbit Comprehensive Analysis Chart
View Comprehensive Chart